Regional Weather Roundup
Issued by NWS State College, PA

Home | Current Version | Previous Version | Text Only | Print | Product List | Glossary Off
Versions: 1 2 3 4 5 6 7 8 9 10 11 12 13 14 15 16 17 18 19 20 21 22 23 24 25 26 27 28 29 30 31 32 33 34 35 36 37 38 39 40 41 42 43 44 45 46 47 48 49 50

000
ASUS41 KCTP 241603
RWRCTP

REGIONAL WEATHER ROUNDUP
NATIONAL WEATHER SERVICE STATE COLLEGE PA
1200 PM EDT FRI APR 24 2015

Note: "fair" indicates few or no clouds below 12,000 feet with no
significant weather and/or obstructions to visibility.

* = STATION THAT DOES NOT REPORT PRECIPITATION /E.G. RAIN...SNOW...ETC/
    THUNDER OR FOG.

PAZ002>004-007>009-013>016-020>023-029>032-241700-
WESTERN PENNSYLVANIA

CITY           SKY/WX    TMP DP  RH WIND       PRES   REMARKS
ERIE           MOSUNNY   37  27  67 W14       30.07S
MEADVILLE      MOSUNNY   41  23  48 W15G25    30.03S
FRANKLIN*      PTSUNNY   39  23  52 W15G26    30.03F
NEW CASTLE     FAIR      46  24  42 W14G23    30.07F
BEAVER COUNTY  PTSUNNY   45  23  42 NW10G20   30.06S
BUTLER*        MOSUNNY   46  23  39 NW14G21   30.05F
PITTSBURGH INT MOSUNNY   47  22  37 W15G22    30.05F
PITTSBURGH     SUNNY     46  17  31 NW20G28   30.04F
INDIANA*       MOSUNNY   45  23  42 NW15G23   30.04F
LATROBE        MOSUNNY   45  21  39 NW12G23   30.06F
WASHINGTON CO* SUNNY     46  21  36 W9G18     30.09F
$$

PAZ004>006-010>012-017>019-024>028-033>037-041-042-045-046-049>053-241700-
CENTRAL PENNSYLVANIA

CITY           SKY/WX    TMP DP  RH WIND       PRES   REMARKS
BRADFORD       MOSUNNY   35  18  49 NW17G33   29.93S
DUBOIS         MOSUNNY   41  22  46 NW13G30   29.96F
CLEARFIELD     MOSUNNY   42  21  43 NW20G28   29.96F
JOHNSTOWN      MOSUNNY   40  20  44 NW22G32   29.96F
ALTOONA        SUNNY     44  19  36 NW23G30   29.97F
STATE COLLEGE  MOSUNNY   43  19  39 W14G25    29.95F
WILLIAMSPORT   LGT RAIN  48  15  26 W14G25    29.91F
SELINSGROVE    SUNNY     46  22  38 NW14G23   29.94F
FT INDIANTOWN  MOSUNNY   46  16  29 W25G35    29.92F
CAPITAL CITY   SUNNY     49  19  30 NW18G31   29.95F
HARRISBURG     MOSUNNY   49  39  68 NW15G24   29.94F
YORK           LGT RAIN  48  21  34 NW18G24   29.95F
$$

PAZ038>040-043-044-047-048-054-055-060>062-067>071-241700-
EASTERN PENNSYLVANIA

CITY           SKY/WX    TMP DP  RH WIND       PRES   REMARKS
SCRANTON       CLOUDY    41  18  39 NW15G24   29.88S
MOUNT POCONO   MOSUNNY   38  16  40 NW24G37   29.82S
ALLENTOWN      MOSUNNY   47  20  34 W12G24    29.90S
QUAKERTOWN*    MOSUNNY   45  18  33 W16G22    29.90F
READING        SUNNY     48  19  31 NW22G30   29.91F
LANCASTER      SUNNY     46  23  40 W22G31    29.93F
COATESVILLE    SUNNY     45  19  36 NW15G28   29.93F
POTTSTOWN      SUNNY     47  20  34 NW13G24   29.92F
BLUE BELL      SUNNY     46  21  36 NW8G21    29.90F
DOYLESTOWN     SUNNY     46  19  34 NW13G21   29.89F
WILLOW GROVE   NOT AVBL
NORTH PHILA    MOSUNNY   49  18  29 NW13G25   29.92F
PHILADELPHIA   MOSUNNY   49  17  28 NW15G26   29.93F
$$


USA.gov is the U.S. government's official web portal to all federal, state and local government web resources and services.